TimeEDT,TemperatureF,Dew PointF,Humidity,Sea Level PressureIn,VisibilityMPH,Wind Direction,Wind SpeedMPH,Gust SpeedMPH,PrecipitationIn,Events,Conditions,WindDirDegrees,DateUTC
12:53 AM,70.0,66.9,90,30.08,10.0,Calm,Calm,-,N/A,,Clear,0,2013-04-03 04:53:00
1:53 AM,66.9,66.0,97,30.06,9.0,Calm,Calm,-,N/A,,Clear,0,2013-04-03 05:53:00
2:53 AM,69.1,66.9,93,30.06,10.0,Calm,Calm,-,N/A,,Clear,0,2013-04-03 06:53:00
3:53 AM,66.9,66.0,97,30.04,10.0,Calm,Calm,-,N/A,,Partly Cloudy,0,2013-04-03 07:53:00
4:53 AM,70.0,66.9,90,30.03,10.0,ESE,3.5,-,N/A,,Clear,120,2013-04-03 08:53:00
5:53 AM,69.1,66.9,93,30.04,10.0,ESE,3.5,-,N/A,,Clear,110,2013-04-03 09:53:00
6:53 AM,68.0,64.9,90,30.04,10.0,SE,4.6,-,N/A,,Clear,130,2013-04-03 10:53:00
7:53 AM,71.1,68.0,90,30.04,10.0,SE,3.5,-,N/A,,Clear,130,2013-04-03 11:53:00
8:53 AM,75.9,68.0,76,30.05,10.0,ESE,10.4,-,N/A,,Clear,120,2013-04-03 12:53:00
9:53 AM,77.0,66.0,69,30.06,10.0,SE,12.7,-,0.01,,Scattered Clouds,130,2013-04-03 13:53:00
10:53 AM,81.0,66.9,62,30.07,10.0,SE,9.2,17.3,N/A,,Partly Cloudy,140,2013-04-03 14:53:00
11:53 AM,82.0,66.0,58,30.05,10.0,SE,12.7,20.7,N/A,,Scattered Clouds,140,2013-04-03 15:53:00
12:53 PM,82.0,66.9,60,30.04,10.0,SE,13.8,19.6,N/A,,Scattered Clouds,130,2013-04-03 16:53:00
1:53 PM,82.0,66.9,60,30.03,10.0,SSE,12.7,-,N/A,,Scattered Clouds,150,2013-04-03 17:53:00
2:53 PM,82.9,68.0,60,30.01,10.0,ESE,15.0,20.7,N/A,,Scattered Clouds,120,2013-04-03 18:53:00
3:53 PM,84.0,68.0,58,30.00,10.0,ESE,13.8,20.7,N/A,,Scattered Clouds,120,2013-04-03 19:53:00
4:41 PM,82.4,66.2,58,30.00,10.0,Variable,6.9,-,N/A,,Scattered Clouds,0,2013-04-03 20:41:00
4:46 PM,84.2,68.0,58,30.00,10.0,SE,8.1,-,N/A,,Scattered Clouds,130,2013-04-03 20:46:00
4:53 PM,82.0,66.0,58,30.00,10.0,SE,12.7,16.1,N/A,,Scattered Clouds,130,2013-04-03 20:53:00
5:53 PM,80.1,66.9,64,30.00,10.0,ESE,12.7,-,N/A,,Partly Cloudy,120,2013-04-03 21:53:00
6:53 PM,78.1,66.0,66,30.01,10.0,SE,10.4,-,N/A,,Partly Cloudy,140,2013-04-03 22:53:00
7:53 PM,75.9,66.9,74,30.02,10.0,SE,8.1,-,N/A,,Partly Cloudy,130,2013-04-03 23:53:00
8:53 PM,73.9,68.0,82,30.04,10.0,SE,6.9,-,N/A,,Clear,130,2013-04-04 00:53:00
9:53 PM,73.9,68.0,82,30.04,10.0,ESE,6.9,-,N/A,,Clear,120,2013-04-04 01:53:00
10:53 PM,73.9,68.0,82,30.04,10.0,ESE,8.1,-,N/A,,Clear,120,2013-04-04 02:53:00
11:53 PM,73.9,69.1,85,30.06,10.0,ESE,3.5,-,N/A,,Clear,120,2013-04-04 03:53:00